Regional Weather Roundup
Issued by NWS Kansas City/Pleasant Hill, MO

Home | Current Version | Previous Version | Graphics & Text | Print | Product List | Glossary Off
Versions: 1 2 3 4 5 6 7 8 9 10 11 12 13 14 15 16 17 18 19 20 21 22 23 24 25 26 27

000
ASUS43 KEAX 212210
RWREAX

WEATHER ROUNDUP FOR EASTERN KANSAS AND NORTHWEST MISSOURI
NATIONAL WEATHER SERVICE KANSAS CITY/PLEASANT HILL MO
400 PM CST SUN JAN 21 2018

KSZ040-057-103>105-MOZ028-029-037-043-212300-
...KANSAS CITY METROPOLITAN AREA...

CITY           SKY/WX    TMP DP  RH WIND       PRES   REMARKS
K.C. INTL      CLOUDY    62  50  64 S8        29.68S
K.C. DOWNTOWN  CLOUDY    65  50  58 S9        29.67F
LEES SUMMIT    CLOUDY    66  52  60 SW15      29.69S
OLATHE - IXD   CLOUDY    63  51  65 S9        29.67F
OLATHE - OJC   CLOUDY    63  51  65 S9        29.67F
LAWRENCE       MOSUNNY   63  51  65 SE14      29.64F

$$

MOZ001>008-011>017-020>025-030>033-038>040-044>046-053-054-212300-
...NORTHERN AND CENTRAL MISSOURI...

CITY           SKY/WX    TMP DP  RH WIND       PRES   REMARKS
ST. JOSEPH     CLOUDY    60  51  72 SE8       29.67F
MOSBY          CLOUDY    61  50  67 SE3       29.70R
WARRENSBURG    CLOUDY    64  50  59 S9        29.70F
WHITEMAN AFB   PTSUNNY   66  51  57 SW12      29.67S
CLINTON        CLOUDY    66  50  55 SW8       29.73R
SEDALIA        CLOUDY    69  52  54 SW10      29.73S
WARSAW         NOT AVBL
CHILLICOTHE      N/A     57  51  80 SE6       29.73S
KIRKSVILLE     CLOUDY    55  52  89 E6        29.75S

$$

MOZ041-047>049-056>058-063>065-088>090-097-212300-
...EASTERN AND SOUTHERN MISSOURI...

CITY           SKY/WX    TMP DP  RH WIND       PRES   REMARKS
ST. LOUIS INTL PTSUNNY   65  54  67 S14G28    29.82S
SPIRIT OF STL  CLOUDY    66  55  67 S13G23    29.80F
COLUMBIA       CLOUDY    69  52  54 S13       29.74S
JEFFERSON CITY MOSUNNY   70  52  52 S13G20    29.74S
ROLLA          PTSUNNY   65  55  70 S18G30    29.79S
OSAGE BEACH    CLOUDY    69  54  58 S14G25    29.76R
SPRINGFIELD    MOSUNNY   69  54  58 S18G30    29.75S
BRANSON        PTSUNNY   66  54  63 S12G20    29.80F
JOPLIN         LGT RAIN  64  58  80 S10G28    29.70F
WEST PLAINS    CLOUDY    61  56  83 S15G23    29.85F

$$

IAZ060-094-KSZ022-034>040-054-083-096-NEZ052-066-093-212300-
...KANSAS...SOUTHEAST NEBRASKA AND IOWA...

CITY           SKY/WX    TMP DP  RH WIND       PRES   REMARKS
TOPEKA         MOSUNNY   64  51  62 S13       29.61F
MANHATTAN      CLOUDY    61  47  59 S7        29.59R
EMPORIA        CLOUDY    61  50  67 S18G26    29.60F
CHANUTE        PTSUNNY   66  54  65 SE15      29.64F
WICHITA        MOSUNNY   63  43  48 SW16      29.59F
OMAHA          DRZL/FOG  40  39  97 N8        29.71F VSB 1   WCI  34
LINCOLN        FOG       38  37  97 NE12      29.69S VSB 1/2 WCI  30
FALLS CITY     CLOUDY    56  46  69 SE6       29.64F
LAMONI         CLOUDY    52  48  86 SE9       29.72R
DES MOINES     FOG       41  41 100 NE7       29.77R VSB 1/4

$$





USA.gov is the U.S. government's official web portal to all federal, state and local government web resources and services.